User: anonymous   Login
Location: Unspecified
(0.0000°N, 0.0000°E)
Time: 05:42:45
(UTC+00:00)
Language:

OBJECT C - Orbit

View from above orbital plane
View from above orbital plane
View from above satellite
View from above satellite

Ground track
Ground track

The orbit data is extracted from the following two-line orbital elements,

1 42827U 17042C   18112.67102246  .00000560  00000-0  62308-4 0  9992
2 42827  97.6018  17.0882 0016031  27.1369 333.0684 14.90777456 42026
Epoch (UTC): 22 April 2018 16:06:16
Eccentricity: 0.0016031
inclination: 97.6018°
perigee height: 584 km
apogee height: 606 km
right ascension of ascending node: 17.0882°
argument of perigee: 27.1369°
revolutions per day: 14.90777456
mean anomaly at epoch: 333.0684°
orbit number at epoch: 4202

The dashed part of the orbit path shows where the satellite is in the earth's shadow,  

DLR